Погода в Боровичи

Погода в Боровичи : погода сейчас, прогноз погоды и архив. Всё, что Вы хотите узнать о погоде в Боровичи!

Поиск расширенной информации на нашем сайте:

Другие новости

Новости СМИ2

Главная страница сайта

Новости сайта

03.07.2017

Напоминаем, что на нашем специализированном сайте Метеоцентр.Азия вы можете получить высокодетализированные автоматические прогнозы погоды по пунктам России, СНГ и мира в авиационном формате (включающие направление и скорость ветра, видимость, явления погоды, количество и форму облачности, нижнюю и верхнюю границу облачности).

Рекомендуем: Поставка запчастей КамАЗ. Смотреть спецпредложение на запчасти камаз

Погода в Боровичи - сегодня

Время (UTC), дата Ветер
(°,м/с) 
Видим.   Явления Облачность Т
(°С)
Тd
(°С)
f(%) Тe
(°С)
Pmin
(гПа)
dP
(гПа)
Po
(мм)
O2
(г/м3)
Тmin Tmax R s Состояние
почвы
15 15.06.18 140 (ЮВ) 20000 м    4/1 1000 м верхняя 
[Cu hum|Cc]
+22.1 +3.6 30 +22  1018.2  -0.5  756  281           
21 15.06.18 100 (В) 20000 м    1/0 верхняя 
[Ci fib]
+11.6 +8.2 80 +13  1019.5  757  291           
00 16.06.18 тихо ()   20000 м    1/0 верхняя 
[Ci fib]
+9.2 +6.8 85 +9  1020.7  1.1  757  294           
09 16.06.18 160 (Ю) 20000 м    3/0 верхняя 
[Ci fib]
+22.4 +4.9 32 +22  1020.8  -0.2  758  281           
12 16.06.18 160 (Ю) 20000 м    3/0 верхняя 
[Cc]
+23.8 +5.5 31 +24  1019.8  -0.9  757  280           
21 16.06.18 100 (В) 20000 м    10/3 600 м средняя 
[Sc|Ac As]
+15.1 +10.8 75 +18  1020  0.7  757  287           
00 17.06.18 130 (ЮВ) 20000 м    10/0 средняя 
[Ac und]
+13.2 +10.7 85 +16  1020.5  0.4  757  289           
09 17.06.18 150 (ЮВ) 20000 м    4/1 600 м средняя, верхняя 
[Cu hum|Ac trans|Ci fib]
+23.3 +11.2 46 +26  1019.3  -0.8  757  279           
12 17.06.18 170 (Ю) 20000 м    8/3 600 м средняя 
[Cu hum|Ac trans]
+24.2 +9.5 39 +25  1018.7  -0.5  756  278           
15 17.06.18 290 (З) 20000 м    6/1 600 м средняя 
[Cu hum|Ac trans]
+23.1 +11.6 48 +26  1017.8  -0.9  756  279      0.3     
21 17.06.18 тихо ()   20000 м    9/0 средняя 
[Ac trans]
+17 +13.5 80 +23  1017.6  755  284           
00 18.06.18 тихо ()   20000 м    9/0 средняя 
[Ac As]
+16.1 +14.2 88 +23  1017.5  -0.2  755  284           
09 18.06.18 200 (Ю) 20000 м    8/4 600 м средняя 
[Cu med, cong|Ac As]
+25.1 +12.6 46 +30  1015  -0.7  754  276           
12 18.06.18 190 (Ю) 20000 м    8/8 600 м 
[Cu med, cong]
+26.3 +12.1 41 +30  1013.8  -1.1  753  274           
15 18.06.18 270 (З) 20000 м    8/5 600 м средняя 
[Cu med, cong|Ac As]
+25.1 +14.4 51 +33  1012.7  -1.2  752  275           
21 18.06.18 тихо ()   20000 м    3/1 600 м верхняя 
[Sc|Ci fib]
+17.5 +14.3 81 +25  1013  -0.1  752  282           
00 19.06.18 140 (ЮВ) 20000 м    3/0 средняя, верхняя 
[Ac As|Ci fib]
+14.9 +14 94 +23  1012.4  -0.7  751  284           
09 19.06.18 270 (З) 20000 м    8/3 600 м средняя, верхняя 
[Cu med, cong|Ac As|Ci fib]
+20.9 +11 53 +23  1011.1  -1.1  751  279           
12 19.06.18 280 (З) 20000 м    9/5 600 м средняя, верхняя 
[Cu med, cong|Ac cuf|Ci sp]
+22.4 +11.8 51 +26  1009.1  -1.9  749  277           
15 19.06.18 270 (З) 20000 м    9/3 600 м средняя 
[Cu med, cong|Ac As]
+20.7 +11.2 54 +24  1007  -2.1  748  278      0.0     
09 20.06.18 270 (З) 4{12}  20000 м    6/6 600 м 
[Cu med, cong]
+19.9 +8.6 48 +21  1006.2  0.1  747  279           
21 20.06.18 тихо ()   20000 м    8/8 600 м 
[Sc]
+12.2 +9.6 84 +13  1008.9  0.4  749  287           
00 21.06.18 270 (З) 20000 м    9/4 300 м средняя 
[Sc|Ac As]
+12.9 +8.1 73 +13  1008.7  0.1  749  287           
09 21.06.18 270 (З) 20000 м    5/4 300 м верхняя 
[Cu med, cong|Cc]
+18.6 +10.1 58 +21  1009.3  0.1  749  281           
21 21.06.18 120 (ЮВ) 20000 м    3/0 средняя, верхняя 
[Ac trans|Ci fib]
+15 +13.9 93 +23  1007.7  -0.9  748  283           
Время (UTC), дата Ветер
(°,м/с) 
Видим.   Явления Облачность Т
(°С)
Тd
(°С)
f(%) Тe
(°С)
Pmin
(гПа)
dP
(гПа)
Po
(мм)
O2
(г/м3)
Тmin Tmax R s Состояние
почвы

Для получения пояснительной информации подведите курсор к названию столбца.

ПОГОДА в Боровичи - архив

Всё, что Вы хотите узнать о погоде в Боровичи - удобно и подробно!

Выберите нужную дату (начиная с 1 января 2015* года) и нажмите кнопку "Найти".
Будут отображены архивные сводки погоды по пункту Боровичи, начиная с указанной даты.


Отображать данные в формате CSV (для использования в таблицах Excel)


Внимание! Наш архив погоды предназначен исключительно для личного некоммерческого использования в познавательных целях. Если Вам необходимы официальные справки о состоянии погоды (для производственных, юридических, коммерческих и т.п. целей), обращайтесь в органы Росгидромета.

*Примечание: данная дата относится к архиву по метеостанциям СССР (Россия, СНГ, Балтия).
Архив по метеостанциям Зарубежной Европы и Азии (кроме Китая) хранится 10 дней, по другим регионам земного шара (Китай, Африка, Америка, Австралия, Океания) - 1 день.

Боровичи - район местоположения метеостанции


Название, широта, долгота, высота метеостанции:
Боровичи 58.4°ш. 33.9°д. 89 м над ур. моря [Российская Федерация]

Дополнительная информация

В oтличие oт бoльшинства пoгoдных сайтoв мы публикуем пoдрoбную метеoинфoрмацию в детальнoм прoфессиoнальнoм фoрмате.

Характеристики температуры и влажнoсти вoздуха измеряются на высoте 2 м в тени вдали oт зданий и деревьев.
Скoрoсть ветра измеряется на высoте 10 м (на урoвне рoста челoвека скoрoсть ветра ниже в 1.5-2 раза). Если метеoстанция нахoдится в гoрoде или в лесу, тo скoрoсть ветра занижена на 2-4 м/с пo сравнению с oткрытым местoм. Скoрoсть ветра над акватoриями крупных рек и oзёр, а также на вершинах хoлмoв на 2-5 м/с выше, чем в oбычных услoвиях.
Атмoсфернoе давление в разных тoчках местнoсти мoжет значительнo oтличаться oт давления на метеoстанции, в зависимoсти oт услoвий рельефа (при пoдъёме на 10 м давление пoнижается примернo на 1 мм рт.ст.).